PLEIADES NEO 3

Last updated on Sat Oct 25 2025 00:02:33 GMT+0000 (Coordinated Universal Time)

1 48268U 21034A 25297.69992176 .00001366 00000+0 18020-3 0 9991 2 48268 97.8951 10.8444 0001285 89.3302 270.8058 14.81668492242783
UTC large
Height (km)
Speed (km/s)
/
Latitude / Longitude
Inclination (degrees)
Orbital Period (minutes)
Azimuth
Elevation
Range (km)
Doppler Factor

Next 0 passes for location: London (51.5072 / 0.1276)

Sorry there are no passes over London.